Погода в Оймяконе

Погода в Оймяконе : погода сейчас, прогноз погоды и архив. Всё, что Вы хотите узнать о погоде в Оймяконе!

Хотите узнать прогноз погоды в Оймяконе? Тогда Вам сюда: Погода в Оймяконе

Поиск расширенной информации на нашем сайте:

Другие новости

Новости СМИ2

Главная страница сайта

Новости сайта

02.10.2013

Напоминаем, что на нашем новом сайте вы можете получить высокодетализированные прогнозы погоды по пунктам России, СНГ и мира (включающие важные для авиации метеовеличины, такие как направление и скорость ветра, видимость, явления погоды, количество и форма облачности, нижняя и верхняя граница облачности), а также ознакомиться с разнообразными материалами по авиационной метеорологии и подборкой полезных ссылок на эту тему.

Сайт Метеоцентр.Азия посвящён разработке технологий оптимизации авиаметеорологического обслуживания, включая проектирование и перспективное создание нескольких автоматизированных авиаметеорологических систем:
- система выпуска высокодетальных прогностических карт явлений погоды для нижнего воздушного пространства по России и ближнему зарубежью;
- система верификации прогнозов TAF (выпускаемых синоптиками официальных АМСГ РФ и ближнего зарубежья) и AUTOTAF (выпускаемых сайтом Метеоцентр.Азия) - выявление ошибок, онлайн-сопоставление с фактической погодой METAR, автоматическое внесение коррективов в прогнозы при резком отклонении фактической погоды от прогноза, подсчёт оправдываемости прогнозов по элементам и в целом;
- система обработки, анализа и отображения авиаметеорологической информации для применения провайдерами метеорологической информации.

Рекомендуем: Заливка фундамента в Калуге облицовка камнем фундамента дома Калуга.

Погода в Оймяконе - сегодня

Время (UTC), дата Ветер
(°,м/с) 
Видим.   Явления Облачность Т
(°С)
Тd
(°С)
f(%) Тe
(°С)
Pmin
(гПа)
dP
(гПа)
Po
(мм)
O2
(г/м3)
Тmin Tmax R s Состояние
почвы
09 22.03.17 030 (СВ) 20000 м    9/9 1000 м 
[Sc]
-14.8 -19.1 70 -17  1025.1  0.3  698  299    -13  0.0     
12 22.03.17 290 (З) 20000 м    1/0 средняя 
[Ac trans]
-26 -28.4 80 -27  1030.2  0.4  698  313           
15 22.03.17 270 (З) 20000 м    ясно 
-29.7 -31.5 84 -30  1032.1  0.4  698  317           
18 22.03.17 220 (ЮЗ) 20000 м    ясно 
-33.2 -35 84 -34  1034.3  0.6  699  322           
21 22.03.17 240 (ЮЗ) 20000 м    ясно 
-35.8 -37.4 85 -37  1036.8  699  326  -36      34  равномерный
сухой снег
100% 
00 23.03.17 тихо ()   20000 м    1/0 верхняя 
[Ci fib]
-24.8 -27.3 80 -25  1032.5  0.7  700  312           
03 23.03.17 030 (СВ) 20000 м    1/0 верхняя 
[Ci fib]
-16.3 -20.5 70 -19  1028.6  -0.5  700  301           
06 23.03.17 010 (С) 20000 м    ясно 
-12.4 -18.6 60 -12  1026.3  -0.8  699  296           
09 23.03.17 290 (З) 20000 м    ясно 
-15.8 -20.9 65 -16  1027.6  0.1  699  300    -11.9       
12 23.03.17 тихо ()   20000 м    ясно 
-27.1 -28.8 85 -27  1032.4  0.2  699  314           
15 23.03.17 160 (Ю) 20000 м    ясно 
-31.7 -33.4 85 -33  1034.1  -0.3  699  320           
18 23.03.17 250 (З) 20000 м    ясно 
-32.9 -34.4 86 -34  1034.2  -0.5  699  322           
21 23.03.17 280 (З) 20000 м    1/0 средняя 
[Ac trans]
-35.1 -36.7 85 -36  1034.6  -0.4  698  325  -36.1      34  равномерный
сухой снег
100% 
00 24.03.17 020 (С) 20000 м    3/0 средняя, верхняя 
[Ac trans|Ci fib]
-23.7 -26.1 80 -27  1028.7  -1.1  698  309           
03 24.03.17 020 (С) 20000 м    1/0 верхняя 
[Ci fib]
-16 -20.2 70 -18  1024.2  -1.4  697  300           
06 24.03.17 020 (С) 20000 м    1/0 верхняя 
[Ci fib]
-12.2 -18.4 60 -12  1030.8  -1.6  695  295           
09 24.03.17 010 (С) 20000 м    1/0 верхняя 
[Ci fib]
-13.8 -19.9 60 -14  1021  -0.4  695  296    -11.3       
12 24.03.17 280 (З) 20000 м    ясно 
-26.4 -28.8 80 -30  1026.6  0.4  695  312           
15 24.03.17 200 (Ю) 20000 м    ясно 
-29.5 -31.3 84 -33  1028  0.1  695  316           
18 24.03.17 200 (Ю) 20000 м    ясно 
-33.3 -35 85 -34  1029.8  0.1  696  321           
21 24.03.17 270 (З) 20000 м    1/0 верхняя 
[Ci fib]
-34 -35.5 86 -35  1030.9  0.8  696  322  -35.4      34  равномерный
сухой снег
100% 
00 25.03.17 тихо ()   20000 м    ясно 
-21 -23.5 80 -21  1025.3  -0.1  696  305           
03 25.03.17 020 (С) 20000 м    ясно 
-14.7 -19.8 65 -15  1021.9  -0.8  695  298           
06 25.03.17 030 (СВ) 20000 м    ясно 
-11.6 -17.8 60 -11  1020.2  -0.6  695  294           
09 25.03.17 тихо ()   20000 м    ясно 
-12.9 -19 60 -13  1020.9  0.2  695  295    -10.9       
Время (UTC), дата Ветер
(°,м/с) 
Видим.   Явления Облачность Т
(°С)
Тd
(°С)
f(%) Тe
(°С)
Pmin
(гПа)
dP
(гПа)
Po
(мм)
O2
(г/м3)
Тmin Tmax R s Состояние
почвы

Для получения пояснительной информации подведите курсор к названию столбца.

ПОГОДА в Оймяконе - архив

Всё, что Вы хотите узнать о погоде в Оймяконе - удобно и подробно!

Выберите нужную дату (начиная с 1 января 2015* года) и нажмите кнопку "Найти".
Будут отображены архивные сводки погоды по пункту Оймякон, начиная с указанной даты.


Отображать данные в формате CSV (для использования в таблицах Excel)


Внимание! Наш архив погоды предназначен исключительно для личного некоммерческого использования в познавательных целях. Если Вам необходимы официальные справки о состоянии погоды (для производственных, юридических, коммерческих и т.п. целей), обращайтесь в органы Росгидромета.

*Примечание: данная дата относится к архиву по метеостанциям СССР (Россия, СНГ, Балтия).
Архив по метеостанциям Зарубежной Европы и Азии (кроме Китая) хранится 10 дней, по другим регионам земного шара (Китай, Африка, Америка, Австралия, Океания) - 1 день.

Оймякон - район местоположения метеостанции


Название, широта, долгота, высота метеостанции:
Оймякон 63.2°ш. 143.2°д. 741 м над ур. моря [Российская Федерация]

Дополнительная информация

В oтличие oт бoльшинства пoгoдных сайтoв мы публикуем пoдрoбную метеoинфoрмацию в детальнoм прoфессиoнальнoм фoрмате.

Характеристики температуры и влажнoсти вoздуха измеряются на высoте 2 м в тени вдали oт зданий и деревьев.
Скoрoсть ветра измеряется на высoте 10 м (на урoвне рoста челoвека скoрoсть ветра ниже в 1.5-2 раза). Если метеoстанция нахoдится в гoрoде или в лесу, тo скoрoсть ветра занижена на 2-4 м/с пo сравнению с oткрытым местoм. Скoрoсть ветра над акватoриями крупных рек и oзёр, а также на вершинах хoлмoв на 2-5 м/с выше, чем в oбычных услoвиях.
Атмoсфернoе давление в разных тoчках местнoсти мoжет значительнo oтличаться oт давления на метеoстанции, в зависимoсти oт услoвий рельефа (при пoдъёме на 10 м давление пoнижается примернo на 1 мм рт.ст.).